This is the latest recevied weather packets stored in our database for station/object DL1ONI-13. If no packets are shown the sender has not sent any weather packets the latest 10 day(s).
| Time | Temp. | Humidity | Pressure | Rain* | Wind** | Luminosity | Snow |
|---|---|---|---|---|---|---|---|
| 1777434626 | 7.22° C | 31% | 1023.2 hPa | 0 mm | - | - | - |
| 1777431616 | 8.33° C | 31% | 1024.4 hPa | 0 mm | - | - | - |
| 1777427418 | 9.44° C | 30% | 1024 hPa | 0 mm | - | - | - |
| 1777426219 | 10° C | 30% | 1024 hPa | 0 mm | - | - | - |
| 1777425021 | 10° C | 30% | 1024.1 hPa | 0 mm | - | - | - |
| 1777422622 | 11.11° C | 29% | 1024.2 hPa | 0 mm | - | - | - |
| 1777415422 | 13.33° C | 26% | 1024 hPa | 0 mm | - | - | - |
| 1777410025 | 14.44° C | 25% | 1023.8 hPa | 0 mm | - | - | - |
| 1777404618 | 15.56° C | 25% | 1023.1 hPa | 0 mm | - | - | - |
| 1777404018 | 16.11° C | 25% | 1023.1 hPa | 0 mm | - | - | - |
| 1777401622 | 16.67° C | 25% | 1021.7 hPa | 0 mm | - | - | - |
| 1777399824 | 17.78° C | 25% | 1020.8 hPa | 0 mm | - | - | - |
| 1777396825 | 19.44° C | 25% | 1020.4 hPa | 0 mm | - | - | - |
| 1777396216 | 19.44° C | 25% | 1020.2 hPa | 0 mm | - | - | - |
| 1777395616 | 20° C | 25% | 1020.2 hPa | 0 mm | - | - | - |
| 1777392619 | 21.67° C | 25% | 1020.3 hPa | 0 mm | - | - | - |
| 1777391419 | 21.67° C | 25% | 1020.3 hPa | 0 mm | - | - | - |
| 1777389021 | 22.22° C | 25% | 1021.2 hPa | 0 mm | - | - | - |
| 1777381825 | 20.56° C | 25% | 1022.5 hPa | 0 mm | - | - | - |
| 1777381265 | 20.56° C | 25% | 1022.5 hPa | 0 mm | - | - | - |
| 1777378216 | 20° C | 25% | 1022.8 hPa | 0 mm | - | - | - |
| 1777377037 | 20° C | 25% | 1022.6 hPa | 0 mm | - | - | - |
| 1777375217 | 19.44° C | 25% | 1022.9 hPa | 0 mm | - | - | - |
| 1777373438 | 18.89° C | 27% | 1023 hPa | 0 mm | - | - | - |
| 1777369221 | 17.22° C | 28% | 1023.4 hPa | 0 mm | - | - | - |
* Rain latest hour (hover to see other rain measurements)
** Current wind speed in m/s (hover to see current wind gust speed)